Regional Weather Roundup
Issued by NWS Midland/Odessa, TX

Skip options and go directly to product.
Home | Oldest Version | Previous Version | Current Version | All | Text Only | Save Text | Print | Product List | Glossary On

Skip product version selection by date and time.   
037
ASUS44 KMAF 020310
RWRMAF
MIDLAND AREA WEATHER ROUNDUP
NATIONAL WEATHER SERVICE MIDLAND TX
1000 PM CDT FRI JUL 01 2016

...IN SOUTHWEST TEXAS AND SOUTHEAST NEW MEXICO...

CITY           SKY/WX    TMP DP  RH WIND       PRES   REMARKS
ALPINE         CLOUDY    72  60  66 S10       30.20R
ANDREWS        FAIR      84  56  38 SE8       30.04R
ARTESIA        CLOUDY    79  63  57 SW3G15    30.03R
BIG SPRING     CLEAR     81  58  45 E8        30.04R
CARLSBAD       CLOUDY    80  58  46 CALM      30.01R
DRYDEN           N/A     89  62  40 E13       29.97R
FORT STOCKTON  CLEAR     86  59  39 SE12      30.01R
GUAD PASS      CLOUDY    68  63  84 SW13      30.19S
HOBBS          CLOUDY    84  54  34 W9        30.08R
MARFA          CLOUDY   N/A N/A N/A S7        30.17R
MIDLAND AIRPK  CLEAR     87  55  34 SE12      30.03R
MIDLAND INTL   CLEAR     84  58  40 SE9       30.02R
ODESSA         CLEAR     86  57  37 SE12      30.03R
PECOS          PTCLDY    83  63  49 CALM      30.00R
PRESIDIO       FAIR      86  62  43 NW6       29.98R
SEMINOLE       CLEAR     84  53  34 SE9       30.05R
SNYDER           N/A     82  61  49 SE8       30.03R
WINK           PTCLDY    85  59  41 SE7       29.99R
$$
...OTHER STATIONS IN TEXAS...

CITY           SKY/WX    TMP DP  RH WIND       PRES   REMARKS
ABILENE        CLEAR     81  63  54 E8        30.02R
AMARILLO       CLEAR     78  63  59 SE12      30.05R
AUSTIN         CLEAR     86  74  67 SE9       29.98R
BROWNSVILLE    CLEAR     82  76  81 SE10      29.98R
CORPUS CHRISTI PTCLDY    83  77  82 SE12      29.97R
DALLAS FTW     PTCLDY    88  66  48 SE8       29.98R
DEL RIO        CLEAR     90  65  43 E13G18    29.91R
EL PASO        TSTM      73  65  75 SW5       30.11R
HOUSTON INT    PTCLDY    83  74  74 SE10      29.99R
LUBBOCK        PTCLDY    83  58  42 SE16      30.04R
SAN ANGELO     CLEAR     79  65  62 SE7       29.99R
SAN ANTONIO    PTCLDY    85  72  65 SE14      29.99R
WACO           CLEAR     84  69  60 SE7       29.98R
WICHITA FALLS  NOT AVBL
$$
...OTHER LOCATIONS IN NEW MEXICO...

CITY           SKY/WX    TMP DP  RH WIND       PRES   REMARKS
ALAMAGORDO     CLOUDY    73  59  60 SW24G30   30.12R THUNDER
ALBUQUERQUE    CLOUDY    65  63  93 S12       30.17R
CANNON AFB     CLOUDY    81  57  43 W12       30.08R
CLOVIS         PTCLDY    81  54  39 S12       30.06R
HOLLOMAN AFB   TSTM      74  61  63 S22G29    30.08R
ROSWELL        CLOUDY    81  55  40 SW14      30.02R
RUIDOSO          N/A     66  50  55 MISG      30.28S
SANTA FE       LGT RAIN  63  56  78 NE9       30.16F
TRUTH OR CONSE CLOUDY    72  58  61 SW14      30.13R
TUCUMCARI      CLOUDY    83  53  35 W15       30.03R
$$

USA.gov is the U.S. government's official web portal to all federal, state and local government web resources and services.